Weather History for KMUO - February, 2013

Change the Weather History Date:

Friday, February 8, 2013

  Actual Average Record
Temperature  
Mean Temperature 36 °F 33 °F  
Max Temperature 42 °F 42 °F 60 °F (1951)
Min Temperature 30 °F 23 °F -18 °F (1936)
Degree Days  
Heating Degree Days 29 32  
Month to date heating degree days 240 258  
Cooling Degree Days 0 0  
Month to date cooling degree days 0 0  
Moisture  
Dew Point 29 °F    
Average Humidity 84    
Maximum Humidity 100    
Minimum Humidity 55    
Precipitation  
Precipitation T in 0.03 in 0.45 in (1960)
Month to date precipitation T 0.23  
Sea Level Pressure  
Sea Level Pressure 29.87 in    
Wind  
Wind Speed 12 mph (NW)    
Max Wind Speed 26 mph    
Max Gust Speed 37 mph    
Visibility 8 miles    
Events Snow    
T = Trace of Precipitation, MM = Missing Value Source: NWS Daily Summary

Daily Weather History Graph

Daily Weather History Graph

Search for Another Location

Airport or City:

Trip Planner

Search our weather history database for the weather conditions in past years. The results will help you decide how hot, cold, wet, or windy it might be!

Date:

Astronomy

Feb. 08, 2013 Rise Set
Actual Time 7:50 AM MST 6:05 PM MST
Civil Twilight 7:20 AM MST 6:35 PM MST
Nautical Twilight 6:46 AM MST 7:09 PM MST
Astronomical Twilight 6:13 AM MST 7:42 PM MST
Moon 6:23 AM MST (2/8) 4:43 PM MST (2/8)
Length of Visible Light 11h 15m
Length of Day
10h 15m
Waning Crescent, 3% of the Moon is Illuminated
Feb 8
Waning Crescent
Feb 10
New
Feb 17
First Quarter
Feb 25
Full
Mar 4
Last Quarter

Hourly Weather History & Observations

Time (MST) Temp. Windchill Dew Point Humidity Pressure Visibility Wind Dir Wind Speed Gust Speed Precip Events Conditions
12:58 AM 32.7 °F - 27.9 °F 82% 29.95 in 10.0 mi West 2.3 mph - N/A   Scattered Clouds
1:28 AM 32.0 °F - 28.4 °F 87% 29.91 in 10.0 mi SW 2.3 mph - N/A   Mostly Cloudy
1:33 AM 32.0 °F - 28.4 °F 87% 29.91 in 10.0 mi WSW 2.3 mph - N/A   Mostly Cloudy
1:53 AM 32.0 °F 26.4 °F 28.4 °F 87% 29.90 in 10.0 mi WNW 5.8 mph - N/A   Scattered Clouds
1:58 AM 31.5 °F 25.8 °F 28.0 °F 87% 29.94 in 10.0 mi WNW 5.8 mph - N/A   Scattered Clouds
2:58 AM 31.3 °F 23.3 °F 29.5 °F 93% 29.94 in 10.0 mi NW 9.2 mph - N/A   Clear
3:43 AM 32.0 °F 26.4 °F 30.2 °F 93% 29.89 in 9.0 mi WNW 5.8 mph - N/A   Mostly Cloudy
3:58 AM 30.7 °F 24.9 °F 29.5 °F 95% 29.92 in 9.0 mi NW 5.8 mph - N/A   Overcast
4:26 AM 32.0 °F 27.5 °F 32.0 °F 100% 29.89 in 9.0 mi West 4.6 mph - N/A   Overcast
4:58 AM 31.8 °F 24.6 °F 31.1 °F 97% 29.93 in 8.0 mi WNW 8.1 mph - N/A   Overcast
5:13 AM 32.0 °F 24.8 °F 32.0 °F 100% 29.88 in 8.0 mi NW 8.1 mph - N/A   Overcast
5:58 AM 31.6 °F 23.1 °F 30.9 °F 97% 29.93 in 7.0 mi NW 10.4 mph - 0.00 in   Overcast
6:18 AM 32.0 °F 22.5 °F 32.0 °F 100% 29.88 in 5.0 mi WNW 12.7 mph - N/A   Overcast
6:58 AM 31.3 °F 19.9 °F 30.7 °F 98% 29.93 in 5.0 mi NW 17.3 mph - 0.00 in   Overcast
7:48 AM 32.0 °F 21.2 °F 32.0 °F 100% 29.88 in 2.5 mi NW 16.1 mph - N/A Snow Light Snow
7:58 AM 30.6 °F 19.4 °F 30.4 °F 99% 29.94 in 2.5 mi NW 16.1 mph - 0.00 in Snow Light Snow
8:03 AM 32.0 °F 22.1 °F 32.0 °F 100% 29.88 in 3.0 mi NW 13.8 mph - N/A Snow Light Snow
8:18 AM 32.0 °F 22.1 °F 32.0 °F 100% 29.88 in 5.0 mi NW 13.8 mph - N/A Snow Light Snow
8:37 AM 32.0 °F 22.1 °F 30.2 °F 93% 29.88 in 3.0 mi NW 13.8 mph - N/A   Light Freezing Drizzle
8:38 AM 32.0 °F 22.1 °F 30.2 °F 93% 29.88 in 3.0 mi NW 13.8 mph - N/A   Overcast
8:39 AM 32.0 °F 22.1 °F 30.2 °F 93% 29.88 in 3.0 mi NW 13.8 mph - N/A   Light Freezing Drizzle
8:40 AM 32.0 °F 21.6 °F 30.2 °F 93% 29.88 in 3.0 mi NW 15.0 mph - N/A   Overcast
8:41 AM 32.0 °F 21.6 °F 30.2 °F 93% 29.88 in 3.0 mi NW 15.0 mph - N/A   Light Freezing Drizzle
8:42 AM 32.0 °F 21.6 °F 30.2 °F 93% 29.88 in 3.0 mi NW 15.0 mph - N/A   Overcast
8:43 AM 32.0 °F 21.6 °F 30.2 °F 93% 29.88 in 3.0 mi NW 15.0 mph - N/A   Light Freezing Drizzle
8:44 AM 32.0 °F 21.6 °F 30.2 °F 93% 29.88 in 3.0 mi NW 15.0 mph - N/A   Overcast
8:45 AM 32.0 °F 22.1 °F 30.2 °F 93% 29.88 in 4.0 mi NW 13.8 mph - N/A   Light Freezing Drizzle
8:46 AM 32.0 °F 21.6 °F 30.2 °F 93% 29.88 in 4.0 mi NW 15.0 mph - N/A   Overcast
8:47 AM 32.0 °F 21.6 °F 30.2 °F 93% 29.88 in 4.0 mi NW 15.0 mph - N/A   Light Freezing Drizzle
8:48 AM 32.0 °F 22.1 °F 30.2 °F 93% 29.88 in 4.0 mi NW 13.8 mph - N/A   Overcast
8:49 AM 32.0 °F 22.1 °F 30.2 °F 93% 29.88 in 5.0 mi NW 13.8 mph - N/A   Light Freezing Drizzle
8:50 AM 32.0 °F 21.6 °F 30.2 °F 93% 29.88 in 5.0 mi NW 15.0 mph - N/A   Overcast
8:55 AM 32.0 °F 21.6 °F 30.2 °F 93% 29.88 in 6.0 mi NW 15.0 mph - N/A   Overcast
8:58 AM 30.4 °F 20.5 °F 30.0 °F 99% 29.94 in 7.0 mi NW 12.7 mph - 0.00 in   Overcast
9:33 AM 32.0 °F 21.2 °F 30.2 °F 93% 29.88 in 10.0 mi NW 16.1 mph - N/A Snow Light Snow
9:43 AM 32.0 °F 20.8 °F 30.2 °F 93% 29.88 in 10.0 mi NW 17.3 mph - N/A Snow Light Snow
9:53 AM 32.0 °F 21.2 °F 28.4 °F 87% 29.88 in 10.0 mi NW 16.1 mph - N/A Snow Light Snow
9:58 AM 30.7 °F 20.0 °F 29.1 °F 94% 29.94 in 10.0 mi NW 15.0 mph - 0.00 in Snow Light Snow
10:03 AM 32.0 °F 21.6 °F 28.4 °F 87% 29.88 in 10.0 mi NW 15.0 mph - N/A Snow Light Snow
10:13 AM 32.0 °F 21.2 °F 28.4 °F 87% 29.88 in 10.0 mi NW 16.1 mph - N/A Snow Light Snow
10:18 AM 32.0 °F 21.2 °F 28.4 °F 87% 29.88 in 10.0 mi NW 16.1 mph - N/A Snow Light Snow
10:23 AM 32.0 °F 20.8 °F 28.4 °F 87% 29.88 in 10.0 mi NW 17.3 mph - N/A Snow Light Snow
10:58 AM 32.5 °F 21.2 °F 28.2 °F 84% 29.91 in 10.0 mi NW 18.4 mph 27.6 mph 0.00 in Snow Light Snow
11:18 AM 33.8 °F 21.9 °F 28.4 °F 81% 29.86 in 10.0 mi NW 21.9 mph 29.9 mph N/A Snow Light Snow
11:48 AM 33.8 °F 21.0 °F 28.4 °F 81% 29.85 in 10.0 mi NW 25.3 mph 31.1 mph N/A   Mostly Cloudy
11:58 AM 34.7 °F 22.5 °F 27.9 °F 76% 29.91 in 10.0 mi NW 24.2 mph 31.1 mph 0.00 in   Overcast
12:48 PM 37.4 °F 26.9 °F 26.6 °F 65% 29.83 in 10.0 mi NW 20.7 mph 27.6 mph N/A   Overcast
12:53 PM 37.4 °F 26.6 °F 26.6 °F 65% 29.83 in 10.0 mi NW 21.9 mph 28.8 mph N/A   Overcast
12:58 PM 36.7 °F 25.7 °F 27.3 °F 69% 29.88 in 10.0 mi NW 21.9 mph 31.1 mph N/A   Overcast
1:28 PM 39.2 °F 29.3 °F 28.4 °F 65% 29.82 in 10.0 mi NW 20.7 mph - N/A   Overcast
1:58 PM 38.8 °F 28.5 °F 27.9 °F 65% 29.86 in 10.0 mi NW 21.9 mph - N/A   Overcast
2:43 PM 41.0 °F 31.4 °F 26.6 °F 57% 29.80 in 10.0 mi NW 21.9 mph 28.8 mph N/A   Overcast
2:58 PM 41.0 °F 31.1 °F 27.1 °F 58% 29.83 in 10.0 mi NW 23.0 mph 27.6 mph N/A   Overcast
3:33 PM 41.0 °F 31.6 °F 26.6 °F 57% 29.78 in 10.0 mi NW 20.7 mph 33.4 mph N/A   Overcast
3:58 PM 41.4 °F 31.4 °F 26.4 °F 55% 29.79 in 10.0 mi NW 24.2 mph 29.9 mph N/A   Mostly Cloudy
4:58 PM 40.6 °F 30.7 °F 25.9 °F 56% 29.81 in 10.0 mi NW 23.0 mph 32.2 mph N/A   Partly Cloudy
5:48 PM 39.2 °F 29.0 °F 26.6 °F 61% 29.78 in 10.0 mi WNW 21.9 mph 31.1 mph N/A   Mostly Cloudy
5:58 PM 38.5 °F 28.1 °F 27.5 °F 65% 29.83 in 10.0 mi WNW 21.9 mph 27.6 mph N/A   Mostly Cloudy
6:23 PM 37.4 °F 26.9 °F 26.6 °F 65% 29.78 in 10.0 mi WNW 20.7 mph 31.1 mph N/A   Mostly Cloudy
6:58 PM 36.0 °F 24.2 °F 26.6 °F 69% 29.83 in 10.0 mi WNW 24.2 mph 32.2 mph N/A   Partly Cloudy
7:58 PM 34.2 °F 21.5 °F 25.2 °F 70% 29.82 in 10.0 mi WNW 25.3 mph 34.5 mph N/A   Clear
8:58 PM 32.7 °F 19.6 °F 24.8 °F 73% 29.84 in 10.0 mi WNW 25.3 mph 34.5 mph N/A   Overcast
9:33 PM 32.0 °F 18.4 °F 24.8 °F 75% 29.79 in 10.0 mi WNW 26.5 mph 36.8 mph N/A   Overcast
9:58 PM 31.8 °F 18.1 °F 24.1 °F 73% 29.86 in 10.0 mi WNW 26.5 mph 34.5 mph N/A   Overcast
10:18 PM 32.0 °F 18.6 °F 24.8 °F 75% 29.80 in 10.0 mi WNW 25.3 mph 33.4 mph N/A   Mostly Cloudy
10:58 PM 30.9 °F 17.5 °F 23.7 °F 75% 29.87 in 10.0 mi WNW 24.2 mph 31.1 mph N/A   Clear
11:58 PM 30.6 °F 17.0 °F 23.5 °F 75% 29.86 in 10.0 mi WNW 24.2 mph 31.1 mph N/A   Mostly Cloudy